SWR3WZ LSZH-EPWA

Flight info

Callsign SWR3WZ
Flight time 1h 27m
Altitude 37000
Route DEGES Z2 XEBIX N871 TULSI DCT MEBEK DCT NENUM N871 BEPAS DCT ELVOT DCT OKENO Q277 GOGUS DCT AGAVA
Aircraft A320/M-SDE3FGHIRWY/LB1

Departure

Time 2026-05-05 18:41
Airport Zürich Airport (LSZH)

Arrival

Time 2026-05-05 20:08
Airport Warsaw Chopin Airport (EPWA)
Time Latitude Longitude Altitude Speed Heading
2026-05-05 18:15 47.45437 8.55636 1407 ft 0 kts 186°
2026-05-05 18:29 47.45441 8.55637 1407 ft 1 kts 186°
2026-05-05 18:29 47.45465 8.55641 1409 ft 1 kts 186°
2026-05-05 18:29 47.45489 8.55642 1412 ft 4 kts 173°
2026-05-05 18:30 47.45512 8.55631 1415 ft 4 kts 128°
2026-05-05 18:30 47.45519 8.55599 1408 ft 4 kts 96°
2026-05-05 18:30 47.45520 8.55587 1411 ft 0 kts 96°
2026-05-05 18:33 47.45516 8.55640 1411 ft 5 kts 96°
2026-05-05 18:33 47.45510 8.55724 1408 ft 9 kts 96°
2026-05-05 18:33 47.45504 8.55812 1414 ft 9 kts 96°
2026-05-05 18:34 47.45497 8.55900 1409 ft 9 kts 96°
2026-05-05 18:34 47.45491 8.55989 1407 ft 9 kts 96°
2026-05-05 18:34 47.45484 8.56076 1407 ft 9 kts 96°
2026-05-05 18:34 47.45479 8.56151 1407 ft 9 kts 96°
2026-05-05 18:35 47.45481 8.56204 1408 ft 2 kts 78°
2026-05-05 18:35 47.45509 8.56267 1410 ft 7 kts 51°
2026-05-05 18:35 47.45530 8.56306 1414 ft 3 kts 51°
2026-05-05 18:35 47.45549 8.56342 1413 ft 5 kts 51°
2026-05-05 18:36 47.45572 8.56384 1413 ft 5 kts 51°
2026-05-05 18:36 47.45588 8.56425 1415 ft 4 kts 69°
2026-05-05 18:36 47.45584 8.56526 1416 ft 9 kts 92°
2026-05-05 18:36 47.45584 8.56604 1417 ft 7 kts 90°
2026-05-05 18:37 47.45579 8.56700 1419 ft 9 kts 96°
2026-05-05 18:37 47.45572 8.56785 1422 ft 7 kts 96°
2026-05-05 18:37 47.45568 8.56849 1420 ft 5 kts 96°
2026-05-05 18:37 47.45565 8.56897 1421 ft 5 kts 96°
2026-05-05 18:38 47.45564 8.56958 1421 ft 7 kts 79°
2026-05-05 18:38 47.45587 8.57006 1423 ft 7 kts 35°
2026-05-05 18:38 47.45657 8.57009 1425 ft 9 kts 325°
2026-05-05 18:38 47.45665 8.56971 1424 ft 0 kts 275°
2026-05-05 18:40 47.45666 8.56955 1424 ft 14 kts 276°
2026-05-05 18:40 47.45715 8.56241 1414 ft 121 kts 275°
2026-05-05 18:40 47.45822 8.54613 1481 ft 185 kts 274°
2026-05-05 18:41 47.45942 8.52725 2488 ft 184 kts 273°
2026-05-05 18:41 47.46036 8.50838 3380 ft 187 kts 272°
2026-05-05 18:41 47.46100 8.48815 3953 ft 207 kts 270°
2026-05-05 18:41 47.45968 8.46588 4622 ft 228 kts 256°
2026-05-05 18:42 47.45409 8.44469 4828 ft 213 kts 242°
2026-05-05 18:42 47.44620 8.42648 4936 ft 216 kts 235°
2026-05-05 18:42 47.43676 8.40801 5800 ft 226 kts 233°
2026-05-05 18:42 47.42650 8.38996 7268 ft 224 kts 225°
2026-05-05 18:43 47.41397 8.37651 8407 ft 237 kts 210°
2026-05-05 18:43 47.39715 8.37025 9193 ft 268 kts 180°
2026-05-05 18:43 47.37913 8.37993 10234 ft 289 kts 147°
2026-05-05 18:43 47.36642 8.40373 11246 ft 309 kts 117°
2026-05-05 18:44 47.36189 8.43596 11693 ft 343 kts 94°
2026-05-05 18:44 47.36390 8.47261 11853 ft 363 kts 82°
2026-05-05 18:44 47.36890 8.50920 11891 ft 367 kts 79°
2026-05-05 18:44 47.37446 8.54654 12291 ft 380 kts 80°
2026-05-05 18:45 47.37924 8.58472 13543 ft 378 kts 82°
2026-05-05 18:45 47.38291 8.62335 14545 ft 382 kts 85°
2026-05-05 18:45 47.38558 8.66251 15512 ft 385 kts 87°
2026-05-05 18:45 47.38755 8.70050 16443 ft 388 kts 88°
2026-05-05 18:46 47.38929 8.73981 17389 ft 392 kts 89°
2026-05-05 18:46 47.39106 8.78006 18311 ft 395 kts 88°
2026-05-05 18:46 47.39295 8.82067 19133 ft 399 kts 88°
2026-05-05 18:46 47.39498 8.86189 19878 ft 404 kts 88°
2026-05-05 18:47 47.39701 8.90339 20597 ft 409 kts 89°
2026-05-05 18:47 47.39825 8.94572 21278 ft 414 kts 91°
2026-05-05 18:47 47.39872 8.98822 21974 ft 418 kts 92°
2026-05-05 18:47 47.39878 9.03126 22643 ft 422 kts 93°
2026-05-05 18:48 47.39869 9.07466 23300 ft 426 kts 93°
2026-05-05 18:48 47.39864 9.11868 23735 ft 430 kts 93°
2026-05-05 18:48 47.39871 9.16274 23859 ft 430 kts 92°
2026-05-05 18:48 47.39892 9.20687 23885 ft 432 kts 92°
2026-05-05 18:49 47.39922 9.25133 23904 ft 434 kts 92°
2026-05-05 18:49 47.39953 9.29609 24404 ft 438 kts 92°
2026-05-05 18:49 47.39981 9.34119 24923 ft 441 kts 92°
2026-05-05 18:49 47.40006 9.38655 25423 ft 444 kts 92°
2026-05-05 18:50 47.40026 9.43225 25915 ft 447 kts 93°
2026-05-05 18:50 47.40044 9.47831 26398 ft 450 kts 93°
2026-05-05 18:50 47.40061 9.52464 26851 ft 454 kts 93°
2026-05-05 18:50 47.40078 9.57146 27312 ft 457 kts 93°
2026-05-05 18:51 47.40093 9.61862 27758 ft 460 kts 93°
2026-05-05 18:51 47.40105 9.66609 28199 ft 464 kts 93°
2026-05-05 18:51 47.40114 9.71372 28599 ft 467 kts 93°
2026-05-05 18:51 47.40123 9.76178 29008 ft 470 kts 93°
2026-05-05 18:52 47.40132 9.81030 29407 ft 473 kts 93°
2026-05-05 18:52 47.40137 9.85894 29801 ft 476 kts 94°
2026-05-05 18:52 47.40139 9.90791 30134 ft 479 kts 93°
2026-05-05 18:52 47.40140 9.95733 30401 ft 482 kts 94°
2026-05-05 18:53 47.40138 10.00673 30723 ft 482 kts 94°
2026-05-05 18:53 47.40135 10.05620 30980 ft 484 kts 94°
2026-05-05 18:53 47.40129 10.10598 31282 ft 487 kts 95°
2026-05-05 18:53 47.40117 10.15605 31671 ft 487 kts 95°
2026-05-05 18:54 47.40102 10.20608 32043 ft 488 kts 95°
2026-05-05 18:54 47.40086 10.25612 32439 ft 487 kts 95°
2026-05-05 18:54 47.40072 10.30617 32868 ft 487 kts 95°
2026-05-05 18:54 47.40058 10.35592 33299 ft 487 kts 95°
2026-05-05 18:55 47.40041 10.40597 33727 ft 485 kts 95°
2026-05-05 18:55 47.40164 10.45581 34085 ft 489 kts 88°
2026-05-05 18:55 47.40759 10.50543 34458 ft 493 kts 79°
2026-05-05 18:55 47.41817 10.55365 34828 ft 495 kts 72°
2026-05-05 18:56 47.43002 10.60141 35235 ft 493 kts 73°
2026-05-05 18:56 47.44174 10.64889 35629 ft 491 kts 73°
2026-05-05 18:56 47.45331 10.69612 36017 ft 489 kts 73°
2026-05-05 18:56 47.46481 10.74338 36404 ft 487 kts 73°
2026-05-05 18:57 47.47621 10.79041 36746 ft 486 kts 73°
2026-05-05 18:57 47.48759 10.83745 36842 ft 486 kts 73°
2026-05-05 18:57 47.51030 10.93147 36829 ft 485 kts 73°
2026-05-05 18:58 47.53297 11.02558 36853 ft 486 kts 73°
2026-05-05 18:58 47.55552 11.11953 36846 ft 486 kts 72°
2026-05-05 18:59 47.57806 11.21385 36851 ft 486 kts 73°
2026-05-05 18:59 47.60051 11.30833 36850 ft 486 kts 73°
2026-05-05 19:00 47.62291 11.40295 36816 ft 486 kts 73°
2026-05-05 19:00 47.64359 11.49798 36847 ft 484 kts 76°
2026-05-05 19:01 47.66254 11.59387 36867 ft 483 kts 77°
2026-05-05 19:01 47.68139 11.68946 36864 ft 483 kts 76°
2026-05-05 19:02 47.70721 11.78154 36863 ft 487 kts 60°
2026-05-05 19:02 47.75029 11.85892 36857 ft 488 kts 44°
2026-05-05 19:03 47.79894 11.92928 36847 ft 488 kts 44°
2026-05-05 19:03 47.84736 11.99974 36863 ft 487 kts 44°
2026-05-05 19:04 47.89574 12.07034 36864 ft 486 kts 44°
2026-05-05 19:04 47.94404 12.14083 36863 ft 486 kts 44°
2026-05-05 19:05 47.99239 12.21149 36863 ft 486 kts 44°
2026-05-05 19:05 48.04041 12.28205 36867 ft 485 kts 45°
2026-05-05 19:06 48.08838 12.35286 36862 ft 484 kts 45°
2026-05-05 19:06 48.13562 12.42263 36860 ft 483 kts 45°
2026-05-05 19:07 48.18404 12.49430 36855 ft 483 kts 45°
2026-05-05 19:07 48.23184 12.56488 36850 ft 482 kts 42°
2026-05-05 19:08 48.28347 12.62935 36841 ft 482 kts 39°
2026-05-05 19:08 48.33517 12.69336 36839 ft 482 kts 39°
2026-05-05 19:09 48.38685 12.75762 36837 ft 482 kts 39°
2026-05-05 19:09 48.43844 12.82205 36838 ft 482 kts 39°
2026-05-05 19:10 48.48998 12.88663 36834 ft 481 kts 39°
2026-05-05 19:10 48.54101 12.95175 36826 ft 481 kts 44°
2026-05-05 19:11 48.58788 13.02381 36831 ft 481 kts 46°
2026-05-05 19:11 48.63454 13.09625 36825 ft 481 kts 46°
2026-05-05 19:12 48.68120 13.16883 36796 ft 480 kts 46°
2026-05-05 19:12 48.72766 13.24127 36811 ft 479 kts 46°
2026-05-05 19:13 48.77396 13.31374 36817 ft 478 kts 46°
2026-05-05 19:13 48.82012 13.38626 36824 ft 477 kts 46°
2026-05-05 19:14 48.86608 13.45874 36818 ft 476 kts 46°
2026-05-05 19:14 48.91186 13.53118 36815 ft 475 kts 46°
2026-05-05 19:15 48.95738 13.60398 36827 ft 475 kts 47°
2026-05-05 19:15 49.00274 13.67702 36817 ft 474 kts 47°
2026-05-05 19:16 49.04793 13.75008 36811 ft 474 kts 47°
2026-05-05 19:16 49.09313 13.82332 36790 ft 474 kts 46°
2026-05-05 19:17 49.13830 13.89649 36808 ft 474 kts 46°
2026-05-05 19:17 49.18350 13.96994 36796 ft 474 kts 46°
2026-05-05 19:18 49.22861 14.04339 36788 ft 474 kts 46°
2026-05-05 19:18 49.27367 14.11709 36787 ft 475 kts 47°
2026-05-05 19:19 49.31873 14.19118 36782 ft 475 kts 47°
2026-05-05 19:19 49.36372 14.26536 36780 ft 475 kts 47°
2026-05-05 19:20 49.40845 14.33922 36779 ft 475 kts 47°
2026-05-05 19:20 49.45347 14.41361 36778 ft 475 kts 47°
2026-05-05 19:21 49.49845 14.48818 36768 ft 475 kts 46°
2026-05-05 19:21 49.53596 14.55063 36786 ft 474 kts 47°
2026-05-05 19:22 49.58067 14.62534 36787 ft 474 kts 47°
2026-05-05 19:22 49.62539 14.70011 36786 ft 474 kts 47°
2026-05-05 19:23 49.66993 14.77487 36780 ft 474 kts 47°
2026-05-05 19:23 49.71443 14.84992 36781 ft 473 kts 47°
2026-05-05 19:24 49.75895 14.92500 36775 ft 473 kts 47°
2026-05-05 19:24 49.80339 15.00018 36770 ft 473 kts 47°
2026-05-05 19:25 49.84767 15.07550 36767 ft 473 kts 47°
2026-05-05 19:25 49.89169 15.15056 36764 ft 473 kts 47°
2026-05-05 19:26 49.93617 15.22658 36774 ft 472 kts 47°
2026-05-05 19:26 49.97997 15.30160 36773 ft 471 kts 47°
2026-05-05 19:27 50.02401 15.37701 36773 ft 471 kts 47°
2026-05-05 19:27 50.06795 15.45259 36768 ft 471 kts 47°
2026-05-05 19:28 50.11164 15.52830 36773 ft 471 kts 47°
2026-05-05 19:28 50.15542 15.60437 36771 ft 470 kts 47°
2026-05-05 19:29 50.19911 15.68029 36770 ft 470 kts 47°
2026-05-05 19:29 50.24276 15.75630 36769 ft 470 kts 47°
2026-05-05 19:30 50.28649 15.83263 36774 ft 471 kts 47°
2026-05-05 19:30 50.33001 15.90901 36763 ft 471 kts 47°
2026-05-05 19:31 50.37344 15.98563 36776 ft 471 kts 47°
2026-05-05 19:31 50.41703 16.06261 36784 ft 471 kts 47°
2026-05-05 19:32 50.46043 16.13942 36799 ft 471 kts 47°
2026-05-05 19:32 50.50388 16.21672 36802 ft 472 kts 48°
2026-05-05 19:33 50.54725 16.29400 36802 ft 472 kts 48°
2026-05-05 19:33 50.59067 16.37152 36806 ft 472 kts 48°
2026-05-05 19:34 50.62817 16.45551 36800 ft 471 kts 65°
2026-05-05 19:35 50.66947 16.59625 36796 ft 472 kts 65°
2026-05-05 19:35 50.69678 16.69029 36802 ft 472 kts 65°
2026-05-05 19:36 50.72381 16.78386 36798 ft 472 kts 66°
2026-05-05 19:36 50.75112 16.87868 36799 ft 472 kts 66°
2026-05-05 19:37 50.77800 16.97244 36789 ft 472 kts 66°
2026-05-05 19:37 50.80520 17.06753 36797 ft 472 kts 66°
2026-05-05 19:38 50.83210 17.16220 36778 ft 471 kts 66°
2026-05-05 19:38 50.85893 17.25674 36786 ft 471 kts 66°
2026-05-05 19:39 50.88576 17.35140 36788 ft 471 kts 66°
2026-05-05 19:39 50.91244 17.44608 36787 ft 470 kts 66°
2026-05-05 19:40 50.93870 17.54008 36787 ft 470 kts 66°
2026-05-05 19:40 50.96537 17.63557 36789 ft 470 kts 66°
2026-05-05 19:41 50.99164 17.72995 36779 ft 470 kts 66°
2026-05-05 19:41 51.01915 17.82407 36785 ft 470 kts 64°
2026-05-05 19:42 51.04792 17.91705 36789 ft 470 kts 63°
2026-05-05 19:42 51.07666 18.01027 36788 ft 469 kts 64°
2026-05-05 19:43 51.10498 18.10381 36790 ft 469 kts 64°
2026-05-05 19:43 51.13306 18.19774 36798 ft 469 kts 64°
2026-05-05 19:44 51.16103 18.29142 36793 ft 469 kts 64°
2026-05-05 19:44 51.17505 18.33834 36676 ft 469 kts 64°
2026-05-05 19:44 51.18906 18.38540 36397 ft 467 kts 64°
2026-05-05 19:44 51.20292 18.43202 36129 ft 466 kts 64°
2026-05-05 19:45 51.21683 18.47880 35873 ft 466 kts 64°
2026-05-05 19:45 51.23067 18.52541 35612 ft 465 kts 64°
2026-05-05 19:45 51.24448 18.57203 35363 ft 465 kts 64°
2026-05-05 19:45 51.25829 18.61875 35111 ft 465 kts 64°
2026-05-05 19:46 51.27205 18.66544 34780 ft 466 kts 64°
2026-05-05 19:46 51.28581 18.71230 34297 ft 464 kts 64°
2026-05-05 19:46 51.29947 18.75891 33896 ft 464 kts 64°
2026-05-05 19:46 51.31310 18.80561 33447 ft 464 kts 64°
2026-05-05 19:47 51.32671 18.85234 32980 ft 465 kts 64°
2026-05-05 19:47 51.34036 18.89923 32525 ft 466 kts 64°
2026-05-05 19:47 51.35402 18.94619 32075 ft 467 kts 64°
2026-05-05 19:47 51.36778 18.99350 31635 ft 468 kts 64°
2026-05-05 19:48 51.37979 19.03483 31250 ft 467 kts 64°
2026-05-05 19:48 51.39343 19.08171 30822 ft 464 kts 64°
2026-05-05 19:48 51.40703 19.12862 30395 ft 462 kts 65°
2026-05-05 19:48 51.42050 19.17531 29983 ft 460 kts 65°
2026-05-05 19:49 51.43382 19.22168 29548 ft 458 kts 65°
2026-05-05 19:49 51.44277 19.25295 29224 ft 456 kts 65°
2026-05-05 19:49 51.46017 19.31391 28600 ft 451 kts 65°
2026-05-05 19:49 51.47319 19.35949 28134 ft 448 kts 65°
2026-05-05 19:50 51.48611 19.40477 27676 ft 445 kts 65°
2026-05-05 19:50 51.49891 19.44976 27232 ft 442 kts 65°
2026-05-05 19:50 51.51161 19.49442 26803 ft 439 kts 65°
2026-05-05 19:50 51.52426 19.53896 26253 ft 436 kts 66°
2026-05-05 19:51 51.53689 19.58355 25074 ft 444 kts 66°
2026-05-05 19:51 51.54968 19.62872 24167 ft 443 kts 66°
2026-05-05 19:51 51.56238 19.67365 23448 ft 438 kts 66°
2026-05-05 19:51 51.57489 19.71792 22623 ft 433 kts 66°
2026-05-05 19:52 51.58725 19.76186 21853 ft 429 kts 66°
2026-05-05 19:52 51.59942 19.80522 21392 ft 418 kts 66°
2026-05-05 19:52 51.61124 19.84749 20821 ft 413 kts 66°
2026-05-05 19:52 51.62292 19.88935 20230 ft 408 kts 66°
2026-05-05 19:53 51.63452 19.93091 19625 ft 405 kts 66°
2026-05-05 19:53 51.64600 19.97209 19022 ft 402 kts 66°
2026-05-05 19:53 51.65737 20.01302 18408 ft 399 kts 66°
2026-05-05 19:53 51.66871 20.05385 17746 ft 398 kts 66°
2026-05-05 19:54 51.67994 20.09431 17115 ft 394 kts 66°
2026-05-05 19:54 51.69105 20.13441 16496 ft 390 kts 67°
2026-05-05 19:54 51.70204 20.17414 15897 ft 387 kts 67°
2026-05-05 19:54 51.71296 20.21369 15397 ft 382 kts 67°
2026-05-05 19:55 51.72353 20.25210 15265 ft 366 kts 67°
2026-05-05 19:55 51.73355 20.28849 15127 ft 345 kts 68°
2026-05-05 19:55 51.74308 20.32318 14784 ft 334 kts 68°
2026-05-05 19:55 51.75241 20.35723 14279 ft 330 kts 68°
2026-05-05 19:56 51.76164 20.39099 13734 ft 328 kts 68°
2026-05-05 19:56 51.77080 20.42457 13176 ft 326 kts 68°
2026-05-05 19:56 51.77986 20.45788 12599 ft 323 kts 68°
2026-05-05 19:56 51.78886 20.49098 12049 ft 320 kts 68°
2026-05-05 19:57 51.79775 20.52374 11493 ft 317 kts 68°
2026-05-05 19:57 51.80358 20.54518 11133 ft 315 kts 68°
2026-05-05 19:57 51.81525 20.58815 10409 ft 310 kts 68°
2026-05-05 19:57 51.82383 20.61981 10035 ft 301 kts 68°
2026-05-05 19:58 51.83203 20.65005 9810 ft 287 kts 68°
2026-05-05 19:58 51.84000 20.67947 9443 ft 287 kts 68°
2026-05-05 19:58 51.84797 20.70902 8890 ft 286 kts 68°
2026-05-05 19:58 51.85584 20.73830 8393 ft 283 kts 68°
2026-05-05 19:59 51.86365 20.76733 7906 ft 280 kts 68°
2026-05-05 19:59 51.87139 20.79614 7420 ft 278 kts 68°
2026-05-05 19:59 51.87895 20.82428 7105 ft 269 kts 68°
2026-05-05 19:59 51.88638 20.85201 6578 ft 269 kts 68°
2026-05-05 20:00 51.89375 20.87952 6220 ft 264 kts 68°
2026-05-05 20:00 51.90101 20.90674 5769 ft 262 kts 68°
2026-05-05 20:00 51.90823 20.93381 5303 ft 260 kts 68°
2026-05-05 20:00 51.91533 20.96042 5185 ft 257 kts 68°
2026-05-05 20:01 51.92225 20.98644 5062 ft 243 kts 68°
2026-05-05 20:01 51.92881 21.01113 4936 ft 237 kts 68°
2026-05-05 20:01 51.93523 21.03585 4770 ft 240 kts 69°
2026-05-05 20:01 51.94124 21.06142 4205 ft 245 kts 71°
2026-05-05 20:02 51.94699 21.08701 3876 ft 238 kts 71°
2026-05-05 20:02 51.95323 21.11178 3689 ft 236 kts 57°
2026-05-05 20:02 51.96525 21.12893 3581 ft 231 kts 20°
2026-05-05 20:02 51.98052 21.13180 3531 ft 215 kts 338°
2026-05-05 20:03 51.99205 21.12034 3515 ft 185 kts 313°
2026-05-05 20:03 52.00277 21.10885 3484 ft 184 kts 324°
2026-05-05 20:03 52.01404 21.09909 3360 ft 183 kts 325°
2026-05-05 20:03 52.02149 21.09267 3227 ft 183 kts 325°
2026-05-05 20:04 52.03262 21.08304 3013 ft 181 kts 325°
2026-05-05 20:04 52.04377 21.07337 2789 ft 180 kts 324°
2026-05-05 20:04 52.05807 21.06097 2483 ft 171 kts 324°
2026-05-05 20:04 52.06498 21.05500 2340 ft 162 kts 323°
2026-05-05 20:05 52.07738 21.04422 2099 ft 142 kts 328°
2026-05-05 20:05 52.08310 21.03922 1946 ft 136 kts 328°
2026-05-05 20:05 52.09124 21.03215 1721 ft 131 kts 327°
2026-05-05 20:05 52.09930 21.02508 1558 ft 129 kts 329°
2026-05-05 20:06 52.10698 21.01843 1383 ft 125 kts 333°
2026-05-05 20:06 52.11450 21.01141 1214 ft 125 kts 334°
2026-05-05 20:06 52.12228 21.00489 1055 ft 127 kts 334°
2026-05-05 20:06 52.13017 20.99835 891 ft 128 kts 334°
2026-05-05 20:07 52.13811 20.99142 695 ft 131 kts 330°
2026-05-05 20:07 52.14620 20.98423 582 ft 131 kts 332°
2026-05-05 20:07 52.15431 20.97701 384 ft 130 kts 331°
2026-05-05 20:07 52.16133 20.97101 357 ft 92 kts 332°
2026-05-05 20:08 52.16534 20.96743 359 ft 56 kts 331°
2026-05-05 20:08 52.16889 20.96437 354 ft 51 kts 332°
2026-05-05 20:08 52.17172 20.96251 355 ft 42 kts 352°
2026-05-05 20:08 52.17386 20.96278 358 ft 15 kts 42°
2026-05-05 20:09 52.17391 20.96287 356 ft 0 kts 48°
2026-05-05 20:09 52.17396 20.96297 362 ft 0 kts 50°
2026-05-05 20:11 52.17404 20.96337 360 ft 8 kts 86°
2026-05-05 20:11 52.17398 20.96391 334 ft 0 kts 116°
2026-05-05 20:11 52.17392 20.96395 361 ft 5 kts 145°
2026-05-05 20:11 52.17338 20.96445 356 ft 12 kts 151°
2026-05-05 20:12 52.17248 20.96525 355 ft 17 kts 152°
2026-05-05 20:12 52.17126 20.96628 354 ft 22 kts 152°
2026-05-05 20:12 52.16977 20.96761 352 ft 26 kts 151°
2026-05-05 20:12 52.16827 20.96892 355 ft 25 kts 152°
2026-05-05 20:13 52.16700 20.97011 354 ft 13 kts 129°
2026-05-05 20:13 52.16726 20.97157 356 ft 16 kts 40°
2026-05-05 20:13 52.16781 20.97169 357 ft 3 kts 341°
2026-05-05 20:13 52.16799 20.97152 335 ft 0 kts 331°
2026-05-05 20:14 52.16800 20.97152 334 ft 0 kts 331°
2026-05-05 20:14 52.16822 20.97141 360 ft 6 kts
2026-05-05 20:14 52.16828 20.97168 357 ft 7 kts 78°
2026-05-05 20:14 52.16837 20.97242 357 ft 2 kts 72°
2026-05-05 20:15 52.16842 20.97260 355 ft 0 kts 65°
2026-05-05 20:15 52.16845 20.97270 354 ft 0 kts 65°